Abilene, TX

2:25 AM CDT on August 25, 2016 (GMT -0500)
Abilene Regional

Weather History for KABI - July, 2012

Change the Weather History Date:

Monday, July 9, 2012

  Actual Average Record
Temperature  
Mean Temperature 83 °F 83 °F  
Max Temperature 93 °F 94 °F 106 °F (2009)
Min Temperature 72 °F 72 °F 59 °F (1952)
Degree Days  
Heating Degree Days 0 0  
Month to date heating degree days 0 0  
Since 1 June heating degree days 0 1  
Since 1 July heating degree days 0 0  
Cooling Degree Days 18 18  
Month to date cooling degree days 178 155  
Year to date cooling degree days 1377 987  
Since 1 June cooling degree days 712 590  
Growing Degree Days 31 (Base 50)    
Moisture  
Dew Point 71 °F    
Average Humidity 75    
Maximum Humidity 100    
Minimum Humidity 49    
Precipitation  
Precipitation T in 0.06 in 1.02 in (1961)
Month to date precipitation 0.56 0.60  
Year to date precipitation 11.53 13.10  
Sea Level Pressure  
Sea Level Pressure 29.94 in    
Wind  
Wind Speed 7 mph (NNE)    
Max Wind Speed 29 mph    
Max Gust Speed 36 mph    
Visibility 10 miles    
Events      
T = Trace of Precipitation, MM = Missing Value Source: NWS Daily Summary

Daily Weather History Graph

Daily Weather History Graph

Search for Another Location

Airport or City:

Trip Planner

Search our weather history database for the weather conditions in past years. The results will help you decide how hot, cold, wet, or windy it might be!

Date:

Astronomy

Jul. 09, 2012 Rise Set
Actual Time 6:39 AM CDT 8:48 PM CDT
Civil Twilight 6:11 AM CDT 9:16 PM CDT
Nautical Twilight 5:37 AM CDT 9:50 PM CDT
Astronomical Twilight 5:00 AM CDT 10:27 PM CDT
Moon 12:00 AM CDT (7/9) 12:42 PM CDT (7/9)
Length of Visible Light 15h 05m
Length of Day
14h 09m
Waning Gibbous, 63% of the Moon is Illuminated
Jul 9
Waning Gibbous
Jul 10
Last Quarter
Jul 18
New
Jul 26
First Quarter
Aug 1
Full

Hourly Weather History & Observations

Time (CDT) Temp. Heat Index Dew Point Humidity Pressure Visibility Wind Dir Wind Speed Gust Speed Precip Events Conditions
12:52 AM 73.0 °F - 73.0 °F 100% 29.97 in 10.0 mi NW 3.5 mph - N/A   Partly Cloudy
1:42 AM 73.4 °F - 73.4 °F 100% 30.04 in 10.0 mi North - - N/A   Clear
1:52 AM 73.0 °F - 73.0 °F 100% 29.95 in 10.0 mi North - - N/A   Clear
2:52 AM 73.0 °F - 72.0 °F 96% 29.94 in 10.0 mi SSW 3.5 mph - N/A   Clear
3:52 AM 73.0 °F - 71.1 °F 93% 29.94 in 10.0 mi ESE 3.5 mph - N/A   Clear
4:52 AM 72.0 °F - 71.1 °F 97% 29.94 in 10.0 mi SSE 3.5 mph - N/A   Clear
5:52 AM 72.0 °F - 71.1 °F 97% 29.95 in 10.0 mi Calm Calm - N/A   Clear
6:52 AM 73.0 °F - 71.1 °F 93% 29.96 in 10.0 mi Calm Calm - N/A   Partly Cloudy
7:52 AM 73.9 °F - 72.0 °F 93% 29.98 in 10.0 mi SSW 5.8 mph - N/A   Clear
8:52 AM 77.0 °F - 72.0 °F 84% 29.98 in 10.0 mi West 3.5 mph - N/A   Clear
9:52 AM 81.0 °F 84.4 °F 70.0 °F 69% 29.99 in 10.0 mi NW 4.6 mph - N/A   Clear
10:52 AM 82.9 °F 87.0 °F 70.0 °F 65% 29.98 in 10.0 mi NNW 5.8 mph - N/A   Clear
11:52 AM 87.1 °F 92.0 °F 70.0 °F 57% 29.98 in 10.0 mi North 8.1 mph - N/A   Clear
12:52 PM 88.0 °F 91.4 °F 68.0 °F 51% 29.96 in 10.0 mi North 8.1 mph - N/A   Clear
1:52 PM 91.0 °F 96.6 °F 70.0 °F 50% 29.94 in 10.0 mi NNW 10.4 mph 16.1 mph N/A   Clear
2:52 PM 91.9 °F 96.9 °F 69.1 °F 47% 29.90 in 10.0 mi NNW 6.9 mph 17.3 mph N/A   Partly Cloudy
3:52 PM 88.0 °F 92.9 °F 70.0 °F 55% 29.88 in 10.0 mi NNW 27.6 mph 35.7 mph N/A   Clear
4:52 PM 84.9 °F 88.8 °F 69.1 °F 59% 29.89 in 10.0 mi NNE 23.0 mph 29.9 mph 0.00 in   Clear
5:52 PM 82.9 °F 86.5 °F 69.1 °F 63% 29.90 in 10.0 mi ENE 8.1 mph - 0.00 in   Clear
6:52 PM 79.0 °F - 70.0 °F 74% 29.89 in 10.0 mi ESE 9.2 mph - N/A   Clear
7:52 PM 78.1 °F - 71.1 °F 79% 29.91 in 10.0 mi SSE 8.1 mph - N/A   Clear
8:52 PM 78.1 °F - 70.0 °F 76% 29.92 in 10.0 mi SE 5.8 mph - N/A   Partly Cloudy
9:52 PM 78.1 °F - 71.1 °F 79% 29.91 in 10.0 mi SE 3.5 mph - N/A   Clear
10:52 PM 77.0 °F - 72.0 °F 84% 29.93 in 10.0 mi Calm Calm - N/A   Clear
11:52 PM 77.0 °F - 71.1 °F 82% 29.93 in 10.0 mi Calm Calm - N/A   Clear